| time (UTC) | temp F | wind direction | speed knots | gust knots | rain 1hr in | rain 24hr in | rain mn in | humidity % | barometer mb |
| 20260506135946 | 55 | 263 | 3.5 | 7.8 | 0.00 | 0.12 | 0.12 | 62 | 1026.9 |
| 20260506135455 | 55 | 263 | 4.3 | 12.2 | 0.00 | 0.12 | 0.12 | 62 | 1026.6 |
| 20260506135000 | 55 | 263 | 5.2 | 12.2 | 0.00 | 0.12 | 0.12 | 62 | 1026.6 |
| 20260506134453 | 55 | 263 | 6.1 | 12.2 | 0.00 | 0.12 | 0.12 | 63 | 1026.6 |
| 20260506133948 | 55 | 263 | 5.2 | 12.2 | 0.00 | 0.12 | 0.12 | 64 | 1026.5 |
| 20260506133431 | 55 | 263 | 4.3 | 10.4 | 0.00 | 0.12 | 0.12 | 65 | 1026.5 |
| 20260506132911 | 55 | 263 | 3.5 | 10.4 | 0.00 | 0.12 | 0.12 | 65 | 1026.4 |
| 20260506131738 | 55 | 263 | 2.6 | 8.7 | 0.00 | 0.12 | 0.12 | 67 | 1026.4 |
| 20260506131218 | 55 | 263 | 3.5 | 8.7 | 0.00 | 0.12 | 0.12 | 67 | 1026.4 |
| 20260506130707 | 55 | 263 | 3.5 | 9.6 | 0.00 | 0.12 | 0.12 | 68 | 1026.4 |
| 20260506130147 | 55 | 263 | 3.5 | 9.6 | 0.00 | 0.12 | 0.12 | 68 | 1026.4 |
| 20260506125026 | 55 | 263 | 3.5 | 10.4 | 0.00 | 0.12 | 0.12 | 70 | 1026.3 |
| 20260506124528 | 55 | 263 | 3.5 | 10.4 | 0.00 | 0.12 | 0.12 | 70 | 1026.3 |
| 20260506124011 | 55 | 263 | 2.6 | 9.6 | 0.00 | 0.12 | 0.12 | 70 | 1026.1 |
| 20260506123506 | 55 | 263 | 2.6 | 9.6 | 0.00 | 0.12 | 0.12 | 70 | 1026.1 |
| 20260506122952 | 55 | 263 | 2.6 | 9.6 | 0.00 | 0.12 | 0.12 | 70 | 1026.1 |
| 20260506122454 | 56 | 263 | 2.6 | 9.6 | 0.00 | 0.12 | 0.12 | 70 | 1026.0 |
| 20260506121333 | 56 | 263 | 2.6 | 8.7 | 0.00 | 0.12 | 0.12 | 70 | 1025.9 |
| 20260506120815 | 56 | 263 | 3.5 | 9.6 | 0.00 | 0.12 | 0.12 | 70 | 1025.9 |
| 20260506120313 | 56 | 263 | 3.5 | 9.6 | 0.00 | 0.12 | 0.12 | 71 | 1025.9 |
| 20260506115753 | 56 | 263 | 3.5 | 9.6 | 0.00 | 0.12 | 0.12 | 73 | 1025.6 |
| 20260506115252 | 56 | 263 | 3.5 | 9.6 | 0.00 | 0.12 | 0.12 | 73 | 1025.6 |
| 20260506114251 | 56 | 263 | 3.5 | 8.7 | 0.00 | 0.12 | 0.12 | 75 | 1025.5 |
| 20260506113740 | 56 | 263 | 2.6 | 8.7 | 0.00 | 0.12 | 0.12 | 76 | 1025.5 |
| 20260506113231 | 56 | 263 | 2.6 | 8.7 | 0.00 | 0.12 | 0.12 | 77 | 1025.5 |
| 20260506112740 | 56 | 263 | 3.5 | 8.7 | 0.00 | 0.12 | 0.12 | 78 | 1025.4 |
| 20260506112224 | 56 | 263 | 3.5 | 8.7 | 0.00 | 0.12 | 0.12 | 78 | 1025.4 |
| 20260506111053 | 56 | 263 | 2.6 | 8.7 | 0.00 | 0.12 | 0.12 | 79 | 1025.4 |
| 20260506110541 | 56 | 263 | 3.5 | 8.7 | 0.00 | 0.12 | 0.12 | 79 | 1025.4 |
| 20260506110022 | 56 | 263 | 3.5 | 8.7 | 0.00 | 0.12 | 0.12 | 79 | 1025.4 |
| 20260506105525 | 56 | 263 | 3.5 | 7.0 | 0.00 | 0.12 | 0.12 | 79 | 1025.3 |
| 20260506105014 | 56 | 263 | 3.5 | 7.0 | 0.00 | 0.12 | 0.12 | 79 | 1025.3 |
| 20260506104503 | 56 | 263 | 2.6 | 11.3 | 0.00 | 0.12 | 0.12 | 79 | 1025.3 |
| 20260506104006 | 56 | 263 | 3.5 | 11.3 | 0.00 | 0.12 | 0.12 | 79 | 1025.0 |
| 20260506103459 | 56 | 263 | 3.5 | 11.3 | 0.00 | 0.12 | 0.12 | 80 | 1025.0 |
| 20260506102958 | 57 | 263 | 3.5 | 11.3 | 0.00 | 0.12 | 0.12 | 80 | 1025.0 |
| 20260506102452 | 57 | 263 | 3.5 | 8.7 | 0.00 | 0.12 | 0.12 | 80 | 1024.9 |
| 20260506095426 | 57 | 263 | 3.5 | 9.6 | 0.00 | 0.12 | 0.12 | 82 | 1024.4 |
| 20260506094926 | 57 | 263 | 3.5 | 9.6 | 0.00 | 0.12 | 0.12 | 82 | 1024.4 |
| 20260506094417 | 57 | 263 | 3.5 | 15.6 | 0.00 | 0.12 | 0.12 | 83 | 1024.4 |
| 20260506093917 | 57 | 263 | 4.3 | 15.6 | 0.00 | 0.12 | 0.12 | 83 | 1024.4 |
| 20260506092744 | 58 | 263 | 5.2 | 15.6 | 0.00 | 0.12 | 0.12 | 83 | 1024.2 |
| 20260506091606 | 58 | 263 | 4.3 | 13.0 | 0.00 | 0.12 | 0.12 | 83 | 1024.2 |
| 20260506090426 | 59 | 263 | 5.2 | 13.0 | 0.00 | 0.12 | 0.12 | 82 | 1023.8 |
| 20260506085935 | 59 | 263 | 5.2 | 13.0 | 0.00 | 0.12 | 0.12 | 82 | 1023.8 |
| 20260506085437 | 59 | 263 | 4.3 | 13.9 | 0.00 | 0.12 | 0.12 | 81 | 1023.4 |
| 20260506084923 | 59 | 263 | 5.2 | 13.9 | 0.00 | 0.12 | 0.12 | 81 | 1023.4 |
| 20260506084428 | 60 | 263 | 6.1 | 13.9 | 0.00 | 0.12 | 0.12 | 80 | 1023.4 |
| 20260506083914 | 60 | 263 | 7.0 | 13.9 | 0.00 | 0.12 | 0.12 | 79 | 1023.2 |
| 20260506083354 | 60 | 263 | 5.2 | 13.0 | 0.00 | 0.12 | 0.12 | 79 | 1023.2 |
| 20260506082901 | 61 | 263 | 4.3 | 12.2 | 0.00 | 0.12 | 0.12 | 78 | 1022.9 |
| 20260506082359 | 61 | 263 | 3.5 | 12.2 | 0.00 | 0.12 | 0.12 | 77 | 1022.9 |
| 20260506081845 | 61 | 263 | 3.5 | 13.0 | 0.00 | 0.12 | 0.12 | 76 | 1022.9 |
| 20260506081350 | 61 | 263 | 5.2 | 13.0 | 0.00 | 0.12 | 0.12 | 76 | 1022.7 |
| 20260506080840 | 61 | 263 | 5.2 | 13.0 | 0.00 | 0.12 | 0.12 | 76 | 1022.7 |
| 20260506080331 | 62 | 263 | 4.3 | 12.2 | 0.00 | 0.12 | 0.12 | 75 | 1022.7 |
| 20260506073129 | 63 | 263 | 4.3 | 12.2 | 0.00 | 0.12 | 0.12 | 70 | 1022.4 |
| 20260506072617 | 63 | 263 | 3.5 | 12.2 | 0.00 | 0.12 | 0.12 | 69 | 1022.3 |
| 20260506072112 | 64 | 263 | 3.5 | 12.2 | 0.00 | 0.12 | 0.12 | 68 | 1022.3 |
| 20260506070942 | 64 | 263 | 4.3 | 12.2 | 0.00 | 0.12 | 0.12 | 67 | 1022.2 |
| 20260506070441 | 64 | 263 | 4.3 | 9.6 | 0.00 | 0.12 | 0.12 | 66 | 1022.2 |
| 20260506062052 | 64 | 263 | 4.3 | 11.3 | 0.00 | 0.12 | 0.12 | 69 | 1022.2 |
| 20260506061543 | 64 | 263 | 4.3 | 11.3 | 0.00 | 0.12 | 0.12 | 70 | 1022.2 |
| 20260506061046 | 64 | 263 | 5.2 | 11.3 | 0.00 | 0.12 | 0.12 | 70 | 1022.0 |
| 20260506051345 | 62 | 263 | 3.5 | 10.4 | 0.00 | 0.12 | 0.12 | 81 | 1021.8 |
| 20260506050845 | 62 | 263 | 4.3 | 10.4 | 0.00 | 0.12 | 0.12 | 81 | 1021.8 |
| 20260506050340 | 62 | 263 | 5.2 | 13.0 | 0.00 | 0.12 | 0.12 | 82 | 1021.8 |
| 20260506044707 | 61 | 263 | 3.5 | 13.0 | 0.00 | 0.12 | 0.12 | 84 | 1021.8 |
| 20260506044210 | 62 | 263 | 2.6 | 8.7 | 0.00 | 0.12 | 0.12 | 86 | 1021.8 |
| 20260506043043 | 61 | 263 | 2.6 | 12.2 | 0.03 | 0.12 | 0.12 | 86 | 1021.8 |
| 20260506042537 | 61 | 263 | 3.5 | 12.2 | 0.06 | 0.12 | 0.12 | 86 | 1022.0 |
| 20260506042031 | 61 | 263 | 5.2 | 12.2 | 0.08 | 0.12 | 0.12 | 85 | 1022.0 |
| 20260506040925 | 62 | 263 | 4.3 | 11.3 | 0.00 | 0.08 | 0.08 | 85 | 1021.7 |
| 20260506040405 | 62 | 263 | 3.5 | 11.3 | 0.00 | 0.08 | 0.08 | 86 | 1021.7 |
| 20260506035857 | 62 | 263 | 3.5 | 11.3 | 0.00 | 0.08 | 0.08 | 86 | 1021.8 |
| 20260506035357 | 61 | 263 | 3.5 | 7.8 | 0.00 | 0.08 | 0.08 | 87 | 1021.8 |
| 20260506034847 | 61 | 263 | 2.6 | 9.6 | 0.00 | 0.08 | 0.08 | 87 | 1021.8 |
| 20260506034341 | 61 | 263 | 3.5 | 9.6 | 0.00 | 0.08 | 0.08 | 87 | 1022.1 |
| 20260506033850 | 60 | 263 | 4.3 | 13.0 | 0.00 | 0.08 | 0.08 | 87 | 1022.1 |
| 20260506033359 | 60 | 263 | 3.5 | 13.0 | 0.00 | 0.08 | 0.08 | 88 | 1022.1 |
| 20260506032851 | 60 | 263 | 4.3 | 13.0 | 0.00 | 0.08 | 0.08 | 88 | 1022.2 |
| 20260506032351 | 60 | 263 | 4.3 | 13.0 | 0.03 | 0.08 | 0.08 | 87 | 1022.2 |
| 20260506031858 | 60 | 263 | 4.3 | 11.3 | 0.05 | 0.08 | 0.08 | 86 | 1022.2 |
| 20260506031338 | 61 | 263 | 3.5 | 11.3 | 0.14 | 0.08 | 0.08 | 85 | 1022.3 |
| 20260506030843 | 62 | 263 | 3.5 | 9.6 | 0.04 | 0.07 | 0.07 | 85 | 1022.3 |
| 20260506030345 | 62 | 263 | 4.3 | 10.4 | 0.08 | 0.07 | 0.07 | 84 | 1022.3 |
| 20260506025844 | 62 | 263 | 3.5 | 10.4 | 0.21 | 0.06 | 0.07 | 82 | 1022.3 |
| 20260506025335 | 63 | 263 | 3.5 | 10.4 | 0.14 | 0.03 | 0.04 | 80 | 1022.3 |
| 20260506024819 | 63 | 263 | 3.5 | 10.4 | 0.00 | 0.02 | 0.03 | 78 | 1022.3 |
| 20260506024327 | 64 | 263 | 2.6 | 8.7 | 0.00 | 0.02 | 0.02 | 75 | 1022.5 |
| 20260506023811 | 64 | 263 | 1.7 | 7.0 | 0.00 | 0.02 | 0.02 | 75 | 1022.5 |
| 20260506023313 | 64 | 263 | 1.7 | 7.0 | 0.00 | 0.02 | 0.02 | 75 | 1022.5 |
| 20260506022753 | 64 | 263 | 1.7 | 9.6 | 0.00 | 0.02 | 0.02 | 75 | 1022.8 |
| 20260506022254 | 64 | 263 | 2.6 | 9.6 | 0.00 | 0.02 | 0.02 | 76 | 1022.8 |
| 20260506021751 | 64 | 263 | 3.5 | 9.6 | 0.00 | 0.02 | 0.02 | 75 | 1022.8 |
| 20260506020622 | 64 | 263 | 3.5 | 9.6 | 0.00 | 0.02 | 0.02 | 76 | 1023.0 |
| 20260506020123 | 64 | 263 | 3.5 | 9.6 | 0.00 | 0.02 | 0.02 | 75 | 1023.0 |
| 20260506015631 | 64 | 263 | 3.5 | 8.7 | 0.00 | 0.02 | 0.02 | 76 | 1023.1 |
| 20260506015136 | 64 | 263 | 3.5 | 10.4 | 0.00 | 0.02 | 0.02 | 77 | 1023.1 |
| 20260506014617 | 63 | 263 | 3.5 | 10.4 | 0.00 | 0.02 | 0.02 | 76 | 1023.1 |
| 20260506014118 | 64 | 263 | 3.5 | 10.4 | 0.00 | 0.02 | 0.02 | 76 | 1023.2 |
| 20260506013626 | 64 | 263 | 3.5 | 10.4 | 0.00 | 0.02 | 0.02 | 77 | 1023.2 |
| 20260506013131 | 63 | 263 | 2.6 | 10.4 | 0.00 | 0.02 | 0.02 | 77 | 1023.2 |
| 20260506012637 | 63 | 263 | 3.5 | 10.4 | 0.00 | 0.02 | 0.02 | 77 | 1023.2 |
| 20260506012131 | 63 | 263 | 3.5 | 10.4 | 0.00 | 0.02 | 0.02 | 77 | 1023.2 |
| 20260506011625 | 63 | 263 | 2.6 | 10.4 | 0.00 | 0.02 | 0.02 | 78 | 1023.2 |
| 20260506011106 | 63 | 263 | 3.5 | 10.4 | 0.00 | 0.02 | 0.02 | 78 | 1023.2 |
| 20260506010549 | 63 | 263 | 4.3 | 10.4 | 0.00 | 0.02 | 0.02 | 77 | 1023.2 |
| 20260506010036 | 63 | 263 | 3.5 | 7.8 | 0.00 | 0.02 | 0.02 | 78 | 1023.2 |
| 20260506005517 | 63 | 263 | 1.7 | 7.8 | 0.00 | 0.02 | 0.02 | 79 | 1023.2 |
| 20260506003802 | 62 | 263 | 2.6 | 7.0 | 0.00 | 0.02 | 0.02 | 83 | 1023.3 |
| 20260506003245 | 61 | 263 | 3.5 | 9.6 | 0.00 | 0.02 | 0.02 | 85 | 1023.3 |
| 20260506002734 | 61 | 263 | 3.5 | 9.6 | 0.00 | 0.02 | 0.02 | 86 | 1023.3 |
| 20260506002215 | 60 | 263 | 2.6 | 9.6 | 0.00 | 0.02 | 0.02 | 87 | 1023.3 |
| 20260506001708 | 60 | 263 | 0.9 | 9.6 | 0.00 | 0.02 | 0.02 | 88 | 1023.3 |
| 20260506001204 | 60 | 263 | 1.7 | 5.2 | 0.00 | 0.02 | 0.02 | 88 | 1023.3 |
| 20260506000656 | 60 | 263 | 1.7 | 7.8 | 0.00 | 0.02 | 0.02 | 89 | 1023.3 |
| 20260506000152 | 60 | 263 | 1.7 | 7.8 | 0.00 | 0.02 | 0.02 | 89 | 1023.3 |
| 20260505235654 | 59 | 263 | 2.6 | 7.8 | 0.00 | 0.02 | 0.02 | 89 | 1023.3 |
| 20260505235200 | 59 | 263 | 1.7 | 7.8 | 0.00 | 0.02 | 0.02 | 89 | 1023.3 |
| 20260505234050 | 59 | 263 | 0.0 | 1.7 | 0.00 | 0.02 | 0.02 | 90 | 1023.3 |
| 20260505233534 | 59 | 263 | 0.0 | 0.0 | 0.00 | 0.02 | 0.02 | 90 | 1023.3 |
| 20260505231801 | 58 | 263 | 0.0 | 2.6 | 0.00 | 0.02 | 0.02 | 90 | 1023.3 |
| 20260505231242 | 58 | 263 | 0.0 | 0.0 | 0.00 | 0.02 | 0.02 | 90 | 1023.3 |
| 20260505230723 | 58 | 263 | 0.0 | 0.0 | 0.00 | 0.02 | 0.02 | 89 | 1023.3 |
| 20260505230205 | 58 | 263 | 0.0 | 2.6 | 0.00 | 0.02 | 0.02 | 90 | 1023.3 |
| 20260505225653 | 57 | 263 | 0.0 | 0.0 | 0.00 | 0.02 | 0.02 | 89 | 1023.2 |
| 20260505225152 | 57 | 263 | 0.9 | 2.6 | 0.00 | 0.02 | 0.02 | 89 | 1023.2 |
| 20260505224634 | 57 | 263 | 0.9 | 2.6 | 0.00 | 0.02 | 0.02 | 89 | 1023.2 |
| 20260505224120 | 57 | 263 | 0.9 | 4.3 | 0.00 | 0.02 | 0.02 | 89 | 1023.1 |
| 20260505222939 | 57 | 263 | 0.9 | 4.3 | 0.00 | 0.02 | 0.02 | 88 | 1023.1 |
| 20260505222436 | 57 | 263 | 0.9 | 2.6 | 0.00 | 0.02 | 0.02 | 88 | 1023.0 |
| 20260505221938 | 57 | 263 | 0.9 | 2.6 | 0.00 | 0.02 | 0.02 | 88 | 1023.0 |
| 20260505221426 | 57 | 263 | 0.9 | 2.6 | 0.00 | 0.02 | 0.02 | 88 | 1023.0 |
| 20260505220907 | 57 | 263 | 0.0 | 2.6 | 0.00 | 0.02 | 0.02 | 87 | 1022.9 |
| 20260505220413 | 57 | 263 | 0.0 | 1.7 | 0.03 | 0.02 | 0.02 | 87 | 1022.9 |
| 20260505215244 | 57 | 263 | 0.0 | 2.6 | 0.03 | 0.02 | 0.02 | 86 | 1022.8 |
| 20260505214103 | 57 | 263 | 0.9 | 2.6 | 0.03 | 0.01 | 0.01 | 85 | 1022.7 |
| 20260505212955 | 57 | 263 | 0.0 | 0.9 | 0.00 | 0.00 | 0.00 | 84 | 1022.7 |
| 20260505212450 | 57 | 263 | 0.0 | 0.0 | 0.00 | 0.00 | 0.00 | 84 | 1022.7 |
| 20260505211952 | 57 | 263 | 0.0 | 0.0 | 0.00 | 0.00 | 0.00 | 84 | 1022.7 |
| 20260505211446 | 57 | 263 | 0.0 | 2.6 | 0.00 | 0.00 | 0.00 | 84 | 1022.7 |
| 20260505210941 | 57 | 263 | 0.0 | 2.6 | 0.00 | 0.00 | 0.00 | 84 | 1022.6 |
| 20260505210431 | 57 | 263 | 0.0 | 2.6 | 0.00 | 0.00 | 0.00 | 84 | 1022.6 |
| 20260505205315 | 57 | 263 | 0.0 | 1.7 | 0.00 | 0.00 | 0.00 | 84 | 1022.5 |
| 20260505204817 | 57 | 263 | 0.0 | 2.6 | 0.00 | 0.00 | 0.00 | 84 | 1022.5 |
| 20260505203648 | 57 | 263 | 0.9 | 2.6 | 0.00 | 0.00 | 0.00 | 83 | 1022.5 |
| 20260505203146 | 57 | 263 | 0.0 | 2.6 | 0.00 | 0.00 | 0.00 | 84 | 1022.5 |
| 20260505202033 | 57 | 263 | 0.0 | 1.7 | 0.00 | 0.00 | 0.00 | 83 | 1022.5 |
| 20260505201526 | 57 | 263 | 0.0 | 1.7 | 0.00 | 0.00 | 0.00 | 83 | 1022.5 |
| 20260505201013 | 57 | 263 | 0.0 | 0.0 | 0.00 | 0.00 | 0.00 | 83 | 1022.5 |
| 20260505200512 | 57 | 263 | 0.0 | 2.6 | 0.00 | 0.00 | 0.00 | 83 | 1022.5 |
| 20260505200016 | 57 | 263 | 0.0 | 2.6 | 0.00 | 0.00 | 0.00 | 83 | 1022.5 |
| 20260505195515 | 57 | 263 | 0.0 | 2.6 | 0.00 | 0.00 | 0.00 | 83 | 1022.4 |
| 20260505194406 | 58 | 263 | 0.0 | 1.7 | 0.00 | 0.01 | 0.00 | 83 | 1022.4 |
| 20260505193854 | 58 | 263 | 0.0 | 2.6 | 0.00 | 0.01 | 0.00 | 83 | 1022.4 |
| 20260505193335 | 58 | 263 | 0.9 | 2.6 | 0.00 | 0.01 | 0.00 | 83 | 1022.4 |
| 20260505192818 | 58 | 263 | 0.9 | 2.6 | 0.00 | 0.01 | 0.00 | 83 | 1022.4 |
| 20260505191006 | 58 | 263 | 0.0 | 2.6 | 0.00 | 0.01 | 0.00 | 83 | 1022.4 |
| 20260505190500 | 58 | 263 | 0.9 | 2.6 | 0.00 | 0.01 | 0.00 | 83 | 1022.4 |
| 20260505190003 | 57 | 263 | 0.9 | 2.6 | 0.00 | 0.01 | 0.00 | 83 | 1022.4 |
| 20260505185444 | 57 | 263 | 0.9 | 2.6 | 0.00 | 0.01 | 0.00 | 83 | 1022.5 |
| 20260505184951 | 57 | 263 | 0.0 | 2.6 | 0.00 | 0.01 | 0.00 | 83 | 1022.5 |
| 20260505184442 | 57 | 263 | 0.0 | 1.7 | 0.00 | 0.01 | 0.00 | 83 | 1022.5 |
| 20260505183315 | 57 | 263 | 0.0 | 1.7 | 0.00 | 0.01 | 0.00 | 83 | 1022.5 |
| 20260505181520 | 57 | 263 | 0.0 | 1.7 | 0.00 | 0.01 | 0.00 | 84 | 1022.4 |
| 20260505181027 | 57 | 263 | 0.0 | 1.7 | 0.00 | 0.01 | 0.00 | 84 | 1022.5 |
| 20260505180527 | 57 | 263 | 0.9 | 1.7 | 0.00 | 0.01 | 0.00 | 84 | 1022.5 |
| 20260505180016 | 57 | 263 | 0.0 | 1.7 | 0.00 | 0.01 | 0.00 | 84 | 1022.5 |
| 20260505175523 | 57 | 263 | 0.0 | 1.7 | 0.00 | 0.01 | 0.00 | 84 | 1022.6 |
| 20260505174404 | 57 | 263 | 0.0 | 1.7 | 0.00 | 0.05 | 0.00 | 84 | 1022.7 |
| 20260505173244 | 57 | 263 | 0.0 | 1.7 | 0.00 | 0.05 | 0.00 | 84 | 1022.7 |
| 20260505172731 | 57 | 263 | 0.0 | 1.7 | 0.00 | 0.05 | 0.00 | 84 | 1022.7 |
| 20260505172240 | 57 | 263 | 0.0 | 3.5 | 0.00 | 0.05 | 0.00 | 84 | 1022.7 |
| 20260505171727 | 57 | 263 | 0.0 | 3.5 | 0.00 | 0.05 | 0.00 | 84 | 1022.7 |
| 20260505171209 | 57 | 263 | 0.0 | 3.5 | 0.00 | 0.05 | 0.00 | 84 | 1022.8 |
| 20260505170650 | 57 | 263 | 0.0 | 3.5 | 0.00 | 0.05 | 0.00 | 84 | 1022.8 |
| 20260505165515 | 57 | 263 | 0.0 | 0.9 | 0.00 | 0.05 | 0.00 | 84 | 1022.8 |
| 20260505164322 | 57 | 263 | 0.0 | 1.7 | 0.00 | 0.05 | 0.00 | 84 | 1023.1 |
| 20260505163822 | 57 | 263 | 0.0 | 1.7 | 0.00 | 0.05 | 0.00 | 84 | 1023.1 |
| 20260505163317 | 57 | 263 | 0.0 | 0.0 | 0.00 | 0.05 | 0.00 | 84 | 1023.1 |
| 20260505162811 | 57 | 263 | 0.0 | 0.9 | 0.00 | 0.05 | 0.00 | 84 | 1023.2 |
| 20260505162307 | 57 | 263 | 0.0 | 0.9 | 0.00 | 0.05 | 0.00 | 84 | 1023.2 |
| 20260505161753 | 57 | 263 | 0.0 | 0.9 | 0.00 | 0.05 | 0.00 | 84 | 1023.2 |
| 20260505161245 | 57 | 263 | 0.0 | 0.9 | 0.00 | 0.05 | 0.00 | 84 | 1023.3 |
| 20260505160123 | 58 | 263 | 0.0 | 0.0 | 0.00 | 0.08 | 0.00 | 84 | 1023.3 |
| 20260505153223 | 58 | 263 | 0.0 | 0.9 | 0.00 | 0.08 | 0.00 | 84 | 1023.4 |
| 20260505152732 | 58 | 263 | 0.0 | 0.0 | 0.00 | 0.08 | 0.00 | 84 | 1023.5 |
| 20260505152216 | 58 | 263 | 0.0 | 1.7 | 0.00 | 0.09 | 0.00 | 84 | 1023.5 |
| 20260505151702 | 57 | 263 | 0.0 | 1.7 | 0.00 | 0.10 | 0.00 | 84 | 1023.5 |
| 20260505151149 | 58 | 263 | 0.0 | 0.9 | 0.00 | 0.10 | 0.00 | 84 | 1023.7 |
| 20260505150643 | 57 | 263 | 0.0 | 1.7 | 0.00 | 0.10 | 0.00 | 83 | 1023.7 |
| 20260505150134 | 58 | 263 | 0.0 | 1.7 | 0.00 | 0.10 | 0.00 | 84 | 1023.7 |
| 20260505140555 | 58 | 263 | 0.0 | 0.0 | 0.00 | 0.11 | 0.11 | 83 | 1023.8 |